Theta_e
296 296 296 298 298 299 300 301 302 301 300 300 300 299 297 297 296 295 295 295 295 294
295 295 294 295 296 297 298 297 299 300 299 298 298 298 297 295 294 294 294 294 294 293
292 293 294 294 293 294 295 295 295 296 296 297 296 296 295 294 294 293 293 293 292 292
291 291 292 292 292 293 292 293 293 294 293 294 293 294 293 292 292 291 291 291 290 289
290 290 289 289 289 291 291 292 292 292 292 292 291 291 291 290 290 290 288 288 288 288
288 288 287 286 287 288 289 289 290 289 290 290 290 290 291 290 289 289 289 288 287 287
286 286 285 285 285 285 286 287 288 289 289 289 289 289 289 288 288 289 288 288 288 287
285 286 284 282 284 284 284 285 287 287 287 287 288 287 288 288 287 287 288 287 286 287
284 284 283 281 282 283 283 284 284 285 286 286 286 286 290 289 286 286 286 286 286 286
284 282 281 280 281 280 280 281 282 283 284 284 286 288 288 289 286 286 286 285 285 284
282 280 280 279 279 278 278 278 280 281 282 283 284 287 288 288 286 285 286 285 285 284
281 279 278 276 276 276 276 277 277 279 280 281 282 285 286 287 285 284 285 285 285 284
280 278 276 276 274 274 275 275 276 277 279 280 280 283 285 285 285 284 284 285 284 284
278 277 276 274 273 272 272 273 272 274 275 278 280 281 284 285 284 283 283 284 283 283
Wind_Speed
13 8 8 9 10 8 9 7 9 10 14 16 17 15 15 13 13 15 14 17 12 9
10 11 10 11 10 8 10 9 11 11 12 14 16 16 16 13 15 15 16 16 14 11
12 12 10 9 10 11 10 11 10 11 12 12 14 15 15 14 14 15 12 12 16 14
11 12 12 10 10 10 11 11 12 11 11 12 13 14 15 16 15 16 15 14 16 16
12 11 11 13 14 12 11 11 11 11 11 12 12 13 15 16 15 17 17 17 16 15
11 11 12 13 12 14 13 12 12 9 11 13 12 13 14 16 17 18 17 18 18 18
10 11 11 11 12 11 13 13 12 11 10 11 12 11 13 14 16 18 17 17 17 18
10 9 8 10 10 11 12 12 12 12 11 11 11 10 13 14 15 18 18 16 16 18
13 11 9 9 10 11 11 11 12 12 12 11 8 13 20 19 14 16 17 17 17 16
13 13 12 11 12 11 12 12 12 12 12 13 12 19 21 21 15 17 16 18 16 15
13 12 12 12 13 13 12 13 13 13 13 13 12 22 22 21 13 14 18 19 19 17
14 10 11 12 13 13 14 14 14 14 15 14 14 21 22 19 12 14 18 17 18 17
15 10 11 11 12 13 13 16 14 16 15 18 18 21 22 19 9 14 13 15 16 24
16 15 12 10 10 12 14 16 17 19 17 18 16 17 24 24 13 12 12 12 12 12
Wind_Direction
0 344 325 315 311 303 298 272 242 237 233 231 236 231 224 217 210 208 209 212 208 201
2 359 343 327 312 303 296 294 287 254 238 236 234 232 228 226 217 213 209 209 202 202
349 350 351 346 332 314 300 287 279 264 263 246 238 232 229 230 227 222 216 210 206 200
347 345 341 342 344 337 316 301 286 275 259 257 243 238 231 226 225 224 224 216 210 204
341 345 342 341 338 334 328 315 297 288 274 257 244 243 235 231 229 226 215 214 216 207
336 337 338 334 331 328 326 320 307 290 277 271 254 250 242 238 232 231 226 220 214 208
327 328 329 323 324 324 323 315 315 309 295 282 269 257 247 239 239 239 231 224 222 217
314 302 313 314 314 315 316 313 313 309 299 288 278 271 260 244 236 238 236 227 223 223
306 307 306 305 307 306 305 307 312 309 300 291 281 275 272 261 246 241 239 235 223 220
288 294 298 302 302 304 311 309 304 300 302 298 289 281 277 267 260 258 246 240 230 218
272 272 285 297 295 303 303 305 304 300 295 292 289 287 283 272 261 252 250 249 239 224
269 263 275 285 291 299 302 298 297 295 293 286 281 285 283 278 257 250 245 238 245 235
271 251 257 265 281 294 293 293 294 290 287 285 283 283 282 277 260 259 253 240 234 234
276 265 260 268 277 288 289 289 288 286 284 277 268 275 276 274 262 257 260 250 237 225